Terug naar catalogus

ONEWEB-0566

ActiefCommunicatiePO
NORAD 56061·PAYLOAD·🇬🇧 United Kingdom

Gelanceerd Mar 26, 2023 vanaf Satish Dhawan Space Centre

Loading…

Volgende Passages (komende 24 uur)

TLE

VersSource: CelesTrak SupGP

Epoch: Sep 14, 2026, 18:20 UTC

1 56061C 23043R   26257.76439074  .00003396  00000+0  82330-2 0  2577
2 56061  87.9282 226.1417 0002054  73.8797   7.2180 13.21823896    13

Volg ONEWEB-0566 in realtime met AllMySat

Download on the App Store